This is the latest recevied weather packets stored in our database for station/object SQ6RR-11. If no packets are shown the sender has not sent any weather packets the latest 10 day(s).
| Time | Temp. | Humidity | Pressure | Rain* | Wind** | Luminosity | Snow |
|---|---|---|---|---|---|---|---|
| 1777711183 | 21.11° C | 24% | 1026.2 hPa | 0 mm | - | - | - |
| 1777710916 | 21.11° C | 24% | 1026.2 hPa | 0 mm | - | - | - |
| 1777710647 | 20.56° C | 24% | 1026.3 hPa | 0 mm | - | - | - |
| 1777710376 | 20.56° C | 23% | 1026.3 hPa | 0 mm | - | - | - |
| 1777710087 | 20.56° C | 25% | 1026.3 hPa | 0 mm | - | - | - |
| 1777709820 | 20.56° C | 24% | 1026.4 hPa | 0 mm | - | - | - |
| 1777709562 | 20.56° C | 25% | 1026.3 hPa | 0 mm | - | - | - |
| 1777709291 | 20.56° C | 25% | 1026.4 hPa | 0 mm | - | - | - |
| 1777709032 | 20° C | 23% | 1026.4 hPa | 0 mm | - | - | - |
| 1777708773 | 20° C | 24% | 1026.6 hPa | 0 mm | - | - | - |
| 1777708502 | 19.44° C | 24% | 1026.6 hPa | 0 mm | - | - | - |
| 1777708238 | 20° C | 25% | 1026.6 hPa | 0 mm | - | - | - |
| 1777707953 | 19.44° C | 24% | 1026.6 hPa | 0 mm | - | - | - |
| 1777707674 | 19.44° C | 25% | 1026.6 hPa | 0 mm | - | - | - |
| 1777707404 | 20° C | 24% | 1026.6 hPa | 0 mm | - | - | - |
| 1777707142 | 20° C | 27% | 1026.5 hPa | 0 mm | - | - | - |
| 1777706867 | 20° C | 25% | 1026.6 hPa | 0 mm | - | - | - |
| 1777706618 | 20.56° C | 27% | 1026.6 hPa | 0 mm | - | - | - |
| 1777706353 | 20° C | 26% | 1026.7 hPa | 0 mm | - | - | - |
| 1777706078 | 20° C | 27% | 1026.6 hPa | 0 mm | - | - | - |
| 1777705798 | 18.89° C | 29% | 1026.5 hPa | 0 mm | - | - | - |
| 1777705531 | 20° C | 30% | 1026.6 hPa | 0 mm | - | - | - |
| 1777705251 | 20° C | 31% | 1026.6 hPa | 0 mm | - | - | - |
| 1777704977 | 19.44° C | 30% | 1026.5 hPa | 0 mm | - | - | - |
| 1777704723 | 18.89° C | 30% | 1026.6 hPa | 0 mm | - | - | - |
* Rain latest hour (hover to see other rain measurements)
** Current wind speed in m/s (hover to see current wind gust speed)